Tracking 31013 objects as of 11-Jul-2025
HD Live streaming from Space Station
objects crossing your sky now

CZ-6A R/B

Track CZ-6A R/B now!
10-day predictions


NORAD ID: 60397
Int'l Code: 2024-140U
Perigee: 804.6 km
Apogee: 861.8 km
Inclination: 89.0 °
Period: 101.4 minutes
Semi major axis: 7204 km
RCS: Unknown
Launch date: August 6, 2024
Source: People's Republic of China (PRC)
Launch site: Taiyaun Space Center, China (TSC)

Note: This is a ROCKET BODY
Your satellite tracking list
Your tracking list is empty




NASA's NSSDC Master Catalog

Two Line Element Set (TLE):
1 60397U 24140U   25191.70167021  .00000082  00000-0  31782-4 0  9993
2 60397  89.0093 313.3241 0039648 217.4026 142.4403 14.19792955 47736
Source of the keplerian elements: AFSPC